Weather History for K9V9 - January, 2013

Change the Weather History Date:

Monday, January 28, 2013

  Actual Average Record
Temperature  
Mean Temperature 26 °F -  
Max Temperature 32 °F 29 °F 55 °F (2015)
Min Temperature 19 °F 12 °F -14 °F (1997)
Degree Days  
Heating Degree Days 40    
Moisture  
Dew Point 24 °F    
Average Humidity 86    
Maximum Humidity 92    
Minimum Humidity 75    
Precipitation  
Precipitation 0.13 in - - ()
Sea Level Pressure  
Sea Level Pressure 29.81 in    
Wind  
Wind Speed 6 mph (NW)    
Max Wind Speed 15 mph    
Max Gust Speed 18 mph    
Averages and records for this station are not official NWS values.
T = Trace of Precipitation, MM = Missing Value Source: NWS Daily Summary

Daily Weather History Graph

Daily Weather History Graph

Search for Another Location

Airport or City:

Trip Planner

Search our weather history database for the weather conditions in past years. The results will help you decide how hot, cold, wet, or windy it might be!

Date:

Astronomy

Jan. 28, 2013 Rise Set
Actual Time 7:57 AM CST 5:43 PM CST
Civil Twilight 7:27 AM CST 6:14 PM CST
Nautical Twilight 6:52 AM CST 6:48 PM CST
Astronomical Twilight 6:18 AM CST 7:22 PM CST
Moon 7:45 PM CST 8:19 AM CST
Length of Visible Light 10h 46m
Length of Day
9h 45m
Full, 98% of the Moon is Illuminated
Jan 28
Full
Feb 3
Last Quarter
Feb 10
New
Feb 17
First Quarter
Feb 25
Full

Hourly Weather History & Observations

Time (CST) Temp. Windchill Dew Point Humidity Pressure Visibility Wind Dir Wind Speed Gust Speed Precip Events Conditions
12:52 AM 25.0 °F - 21.0 °F 85% 29.80 in - Calm Calm - N/A   Unknown
1:52 AM 26.1 °F 17.6 °F 21.9 °F 84% 29.82 in - WNW 8.1 mph - N/A   Unknown
2:52 AM 25.0 °F 18.1 °F 21.0 °F 85% 29.83 in - WNW 5.8 mph - N/A   Unknown
3:52 AM 25.0 °F 20.7 °F 21.0 °F 85% 29.83 in - SSW 3.5 mph - N/A   Unknown
4:52 AM 24.1 °F 19.7 °F 21.0 °F 88% 29.83 in - Variable 3.5 mph - N/A   Unknown
5:52 AM 23.0 °F 15.8 °F 19.0 °F 85% 29.82 in - WNW 5.8 mph - N/A   Unknown
6:52 AM 19.9 °F 14.9 °F 17.1 °F 89% 29.86 in - WSW 3.5 mph - N/A   Unknown
7:52 AM 23.0 °F 15.8 °F 19.0 °F 85% 29.86 in - WNW 5.8 mph - N/A   Unknown
8:52 AM 23.0 °F 15.8 °F 19.9 °F 88% 29.88 in - West 5.8 mph - N/A   Unknown
9:52 AM 26.1 °F 20.5 °F 21.9 °F 84% 29.87 in - NW 4.6 mph - N/A   Unknown
10:52 AM 28.0 °F 20.0 °F 24.1 °F 85% 29.85 in - North 8.1 mph - N/A   Unknown
11:52 AM 30.9 °F 26.2 °F 24.1 °F 76% 29.84 in - North 4.6 mph - N/A   Unknown
12:52 PM 30.9 °F - 24.1 °F 76% 29.83 in - Calm Calm - N/A   Unknown
1:52 PM 32.0 °F 25.6 °F 25.0 °F 75% 29.81 in - NW 6.9 mph - N/A   Unknown
2:52 PM 30.9 °F 25.2 °F 26.1 °F 82% 29.79 in - North 5.8 mph - N/A   Unknown
3:52 PM 30.9 °F 22.8 °F 27.0 °F 85% 29.78 in - North 9.2 mph - 0.02 in   Unknown
4:52 PM 30.9 °F 21.2 °F 27.0 °F 85% 29.76 in - North 12.7 mph - N/A   Unknown
5:52 PM 30.0 °F 19.1 °F 27.0 °F 88% 29.76 in - North 15.0 mph 18.4 mph N/A   Unknown
6:52 PM 30.0 °F 20.5 °F 27.0 °F 88% 29.78 in - North 11.5 mph - N/A   Unknown
7:52 PM 30.9 °F 21.7 °F 28.9 °F 92% 29.78 in - North 11.5 mph - N/A   Unknown
8:52 PM 30.9 °F 21.2 °F 28.0 °F 89% 29.77 in - North 12.7 mph - 0.03 in   Unknown
9:52 PM 30.0 °F 21.1 °F 28.0 °F 92% 29.77 in - NNW 10.4 mph - 0.01 in   Unknown
10:52 PM 30.9 °F 23.5 °F 28.9 °F 92% 29.75 in - NNW 8.1 mph - 0.05 in   Unknown
11:52 PM 30.9 °F 25.2 °F 28.9 °F 92% 29.76 in - NW 5.8 mph - 0.02 in   Unknown